This demonstration page uses our WeatherBlox Daily Observations layout. Learn more.

Left ArrowRight Arrow

Hourly Observations for August 11, 2022

Temp ( °F °C ) Dew Point ( °F °C ) Humidity (%) Winds ( mph kmh ) Pressure ( in mb ) Visibility ( mi km ) Precip ( " mm )
12:56 am 00:56 Clear 71 21.7 64 17.8 79 79 S 8 13 30.13 1020 10 16 0.00 0.00
1:56 am 01:56 Clear 71 21.7 64 17.8 79 79 S 8 13 30.12 1020 10 16 0.00 0.00
3:56 am 03:56 Clear 68 20 63 17.2 84 84 S 9 15 30.13 1020 10 16 0.00 0.00
4:56 am 04:56 Clear 66 18.9 62 16.7 87 87 S 8 13 30.12 1020 10 16 0.00 0.00
5:56 am 05:56 Clear 65 18.3 61 16.1 87 87 S 5 7 30.12 1020 10 16 0.00 0.00
6:56 am 06:56 Sunny 64 17.8 61 16.1 90 90 S 7 11 30.13 1020 10 16 0.00 0.00
7:56 am 07:56 Sunny 68 20 62 16.7 81 81 S 7 11 30.14 1021 10 16 0.00 0.00
8:56 am 08:56 Sunny 74 23.3 62 16.7 66 66 S 12 19 30.16 1021 10 16 0.00 0.00
9:56 am 09:56 Sunny 79 26.1 62 16.7 56 56 SSW 13 20 30.16 1021 10 16 0.00 0.00
10:56 am 10:56 Sunny 81 27.2 63 17.2 54 54 SSW 13 20 30.15 1021 10 16 0.00 0.00
11:56 am 11:56 Sunny 84 28.9 61 16.1 46 46 S 14 22 30.14 1021 9 14 0.00 0.00
12:56 pm 12:56 Sunny 87 30.6 61 16.1 42 42 S 14 22 30.13 1020 10 16 0.00 0.00
1:56 pm 13:56 Sunny 90 32.2 62 16.7 40 40 S 13 20 30.11 1020 10 16 0.00 0.00
2:56 pm 14:56 Sunny 90 32.2 66 18.9 45 45 SSE 12 19 30.10 1019 10 16 0.00 0.00
3:56 pm 15:56 Sunny 90 32.2 67 19.4 47 47 SSE 12 19 30.09 1019 10 16 0.00 0.00
4:56 pm 16:56 Sunny 91 32.8 66 18.9 44 44 SSE 13 20 30.07 1018 10 16 0.00 0.00
5:56 pm 17:56 Sunny 90 32.2 66 18.9 45 45 SSE 13 20 30.07 1018 10 16 0.00 0.00
6:56 pm 18:56 Sunny 88 31.1 63 17.2 43 43 SSE 9 15 30.06 1018 10 16 0.00 0.00
7:56 pm 19:56 Sunny 83 28.3 62 16.7 49 49 SSE 9 15 30.06 1018 10 16 0.00 0.00
8:56 pm 20:56 Clear 77 25 62 16.7 60 60 SSE 9 15 30.06 1018 10 16 0.00 0.00
9:56 pm 21:56 Clear 72 22.2 62 16.7 71 71 SE 9 15 30.07 1018 10 16 0.00 0.00
10:56 pm 22:56 Clear 71 21.7 60 15.6 68 68 SSE 9 15 30.09 1019 10 16 0.00 0.00
11:56 pm 23:56 Clear 66 18.9 59 15 78 78 S 8 13 30.09 1019 10 16 0.00 0.00

Powered by AerisWeather